STARLINK-32522

Last updated on Thu Nov 21 2024 00:02:07 GMT+0000 (Coordinated Universal Time)

1 61981U 24210Y 24325.66668981 -.01006512 31085-3 -26778-2 0 9999 2 61981 43.0026 353.4569 0001946 270.9032 102.6347 15.93665538 2196
UTC large
Height (km)
Speed (km/s)
/
Latitude / Longitude
Inclination (degrees)
Orbital Period (minutes)
Azimuth
Elevation
Range (km)
Doppler Factor

Next 0 passes for location: London (51.5072 / 0.1276)

Sorry there are no passes over London.